Location: *
(45.0500°N, 12.0500°E)
Time: 23:23:47
(UTC+00:00)

Cosmos 1812 Rocket - Pass Details

Date: 09 April 2020
Orbit: 606 x 631 km, 82.5° (Epoch: 04 June)

Event Time Altitude Azimuth Distance (km) Brightness Sun altitude
Exits shadow 19:25:21 31° 123° (ESE) 1,066 4.2 -16.5°
Maximum altitude 19:26:24 36° 91° (E) 966 4.1 -16.6°
Drops below altitude 10° 19:30:23 10° 25° (NNE) 1,967 6.2 -17.2°
Sets 19:32:44 0° 17° (NNE) 2,876 7.2 -17.6°
